Location: Sankt+Gallen
(47.4262°N, 9.3755°E)
Time: 10:23:53
(UTC+01:00)

ARIANE 6 FM1 Upper Stage - Pass Details

Date: 22 February 2026
Orbit: 523 x 607 km, 62.0° (Epoch: 9 March)

Event Time Altitude Azimuth Distance (km) Brightness Sun altitude
Rises 18:37:29 0° 309° (NW) 2,659 6.8 -7.6°
Reaches altitude 10° 18:39:52 10° 298° (WNW) 1,767 6.2 -8.0°
Maximum altitude 18:43:18 28° 238° (WSW) 999 4.8 -8.6°
Drops below altitude 10° 18:46:44 10° 178° (S) 1,772 5.3 -9.2°
Sets 18:49:07 0° 167° (SSE) 2,668 6.0 -9.6°
